Time,TemperatureF,DewpointF,PressureIn,WindDirection,WindDirectionDegrees,WindSpeedMPH,WindSpeedGustMPH,Humidity,HourlyPrecipIn,Conditions,Clouds,dailyrainin,SoftwareType,DateUTC
2013-08-05 07:34:00,60.8,51.0,28.88,SSW,208,0.0,0.0,70,0.00,,CLR,0.00,VWS V14.01,2013-08-05 11:34:00,
2013-08-05 07:40:00,61.0,50.8,28.88,SSW,208,0.0,0.0,69,0.00,,CLR,0.00,VWS V14.01,2013-08-05 11:40:00,
2013-08-05 07:45:00,61.3,50.3,28.88,SSW,208,0.0,0.0,67,0.00,,CLR,0.00,VWS V14.01,2013-08-05 11:45:00,
2013-08-05 07:50:00,61.5,50.5,28.88,SSW,208,0.0,0.0,67,0.00,,CLR,0.00,VWS V14.01,2013-08-05 11:50:00,
2013-08-05 07:55:00,62.1,49.8,28.88,SSW,208,0.0,0.0,64,0.00,,CLR,0.00,VWS V14.01,2013-08-05 11:55:00,
2013-08-05 08:00:00,62.6,48.1,28.88,SSW,208,0.0,0.0,59,0.00,,CLR,0.00,VWS V14.01,2013-08-05 12:00:00,
2013-08-05 08:06:00,63.1,47.2,28.88,SSW,208,0.0,0.0,56,0.00,,FEW075,0.00,VWS V14.01,2013-08-05 12:06:00,
2013-08-05 08:11:00,63.7,47.2,28.88,SSW,208,0.0,0.0,55,0.00,,FEW075,0.00,VWS V14.01,2013-08-05 12:11:00,
2013-08-05 08:16:00,64.9,45.9,28.88,SSW,208,0.0,0.0,50,0.00,,FEW075,0.00,VWS V14.01,2013-08-05 12:16:00,
2013-08-05 08:21:00,65.8,46.2,28.88,SSW,208,0.0,0.0,49,0.00,,FEW075,0.00,VWS V14.01,2013-08-05 12:21:00,
2013-08-05 08:26:00,66.2,46.0,28.88,SSW,208,0.0,0.0,48,0.00,,FEW075,0.00,VWS V14.01,2013-08-05 12:26:00,
2013-08-05 08:31:00,66.9,43.7,28.88,SSW,208,0.0,0.0,43,0.00,,FEW075,0.00,VWS V14.01,2013-08-05 12:31:00,
2013-08-05 08:36:00,67.6,41.2,28.88,SSW,208,0.0,0.0,38,0.00,,FEW075,0.00,VWS V14.01,2013-08-05 12:36:00,
2013-08-05 08:42:00,67.6,41.2,28.88,SSW,208,0.0,0.0,38,0.00,,FEW075,0.00,VWS V14.01,2013-08-05 12:42:00,
2013-08-05 08:47:00,67.5,41.0,28.88,SSW,208,0.0,0.0,38,0.00,,FEW075,0.00,VWS V14.01,2013-08-05 12:47:00,
2013-08-05 08:52:00,67.1,41.3,28.88,SSW,208,0.0,0.0,39,0.00,,FEW075,0.00,VWS V14.01,2013-08-05 12:52:00,
2013-08-05 08:57:00,67.3,40.8,28.88,SSW,208,0.0,0.0,38,0.00,,FEW075,0.00,VWS V14.01,2013-08-05 12:57:00,
2013-08-05 09:02:00,67.3,43.4,28.88,SSW,208,0.0,0.0,42,0.00,,OVC070,0.00,VWS V14.01,2013-08-05 13:02:00,
2013-08-05 09:08:00,67.3,42.8,28.88,SSW,208,0.0,0.0,41,0.00,,OVC070,0.00,VWS V14.01,2013-08-05 13:08:00,
2013-08-05 09:13:00,67.5,43.0,28.91,SSW,208,0.0,0.0,41,0.00,,OVC070,0.00,VWS V14.01,2013-08-05 13:13:00,
2013-08-05 09:18:00,67.6,41.8,28.91,SSW,208,0.0,0.0,39,0.00,,OVC070,0.00,VWS V14.01,2013-08-05 13:18:00,
2013-08-05 09:23:00,67.6,41.8,28.91,SSW,208,0.0,0.0,39,0.00,,OVC070,0.00,VWS V14.01,2013-08-05 13:23:00,
2013-08-05 09:28:00,67.8,40.6,28.91,SSW,208,0.0,0.0,37,0.00,,OVC070,0.00,VWS V14.01,2013-08-05 13:28:00,
2013-08-05 09:33:00,68.0,41.5,28.91,SSW,208,0.0,0.0,38,0.00,,OVC070,0.00,VWS V14.01,2013-08-05 13:33:00,
2013-08-05 09:39:00,68.4,39.7,28.91,SSW,208,0.0,0.0,35,0.00,,OVC070,0.00,VWS V14.01,2013-08-05 13:39:00,
2013-08-05 09:43:00,68.7,40.7,28.88,NNE,15,0.0,0.0,36,0.00,,OVC070,0.00,VWS V14.01,2013-08-05 13:43:00,
2013-08-05 09:49:00,68.9,40.2,28.88,North,6,0.0,0.0,35,0.00,,OVC070,0.00,VWS V14.01,2013-08-05 13:49:00,
2013-08-05 09:54:00,69.1,41.0,28.88,ENE,68,0.0,0.0,36,0.00,,OVC070,0.00,VWS V14.01,2013-08-05 13:54:00,
2013-08-05 09:59:00,69.6,39.3,28.88,West,265,0.0,0.0,33,0.00,,OVC070,0.00,VWS V14.01,2013-08-05 13:59:00,
2013-08-05 10:04:00,70.3,40.7,28.88,West,265,0.0,0.0,34,0.00,,OVC065,0.00,VWS V14.01,2013-08-05 14:04:00,
2013-08-05 10:09:00,71.1,40.5,28.91,West,265,2.2,2.2,33,0.00,,OVC065,0.00,VWS V14.01,2013-08-05 14:09:00,
2013-08-05 10:14:00,71.8,40.4,28.91,West,265,0.0,0.0,32,0.00,,OVC065,0.00,VWS V14.01,2013-08-05 14:14:00,
2013-08-05 10:19:00,71.6,40.2,28.91,NNE,20,0.0,0.0,32,0.00,,OVC065,0.00,VWS V14.01,2013-08-05 14:19:00,
2013-08-05 10:25:00,71.8,40.4,28.91,East,79,0.0,0.0,32,0.00,,OVC065,0.00,VWS V14.01,2013-08-05 14:25:00,
2013-08-05 10:30:00,72.7,40.3,28.91,East,88,2.7,2.7,31,0.00,,OVC065,0.00,VWS V14.01,2013-08-05 14:30:00,
2013-08-05 10:35:00,72.1,38.2,28.91,ENE,73,0.0,0.0,29,0.00,,OVC065,0.00,VWS V14.01,2013-08-05 14:35:00,
2013-08-05 10:40:00,72.1,38.2,28.91,ENE,73,0.0,0.0,29,0.00,,OVC065,0.00,VWS V14.01,2013-08-05 14:40:00,
2013-08-05 10:45:00,72.1,38.2,28.91,ENE,73,0.0,0.0,29,0.00,,OVC065,0.00,VWS V14.01,2013-08-05 14:45:00,
2013-08-05 10:50:00,72.1,38.2,28.91,ENE,73,0.0,0.0,29,0.00,,OVC065,0.00,VWS V14.01,2013-08-05 14:50:00,
2013-08-05 10:55:00,72.1,38.2,28.91,ENE,73,0.0,0.0,29,0.00,,OVC065,0.00,VWS V14.01,2013-08-05 14:55:00,
2013-08-05 11:01:00,72.1,38.2,28.91,ENE,73,0.0,0.0,29,0.00,,OVC065,0.00,VWS V14.01,2013-08-05 15:01:00,
2013-08-05 11:05:00,72.1,38.2,28.91,ENE,73,0.0,0.0,29,0.00,,OVC060,0.00,VWS V14.01,2013-08-05 15:05:00,
2013-08-05 11:11:00,72.1,38.2,28.91,ENE,73,0.0,0.0,29,0.00,,OVC060,0.00,VWS V14.01,2013-08-05 15:11:00,
2013-08-05 11:16:00,72.1,38.2,28.91,ENE,73,0.0,0.0,29,0.00,,OVC060,0.00,VWS V14.01,2013-08-05 15:16:00,
2013-08-05 11:20:00,72.1,38.2,28.91,ENE,73,0.0,0.0,29,0.00,,OVC060,0.00,VWS V14.01,2013-08-05 15:20:00,
2013-08-05 11:26:00,72.1,38.2,28.91,ENE,73,0.0,0.0,29,0.00,,OVC060,0.00,VWS V14.01,2013-08-05 15:26:00,
2013-08-05 11:31:00,72.1,38.2,28.91,ENE,73,0.0,0.0,29,0.00,,OVC060,0.00,VWS V14.01,2013-08-05 15:31:00,
2013-08-05 11:36:00,72.1,38.2,28.91,ENE,73,0.0,0.0,29,0.00,,OVC060,0.00,VWS V14.01,2013-08-05 15:36:00,
2013-08-05 11:41:00,72.1,38.2,28.91,ENE,73,0.0,0.0,29,0.00,,OVC060,0.00,VWS V14.01,2013-08-05 15:41:00,
2013-08-05 11:47:00,72.1,38.2,28.88,ENE,73,0.0,0.0,29,0.00,,OVC060,0.00,VWS V14.01,2013-08-05 15:47:00,
2013-08-05 11:52:00,72.1,38.2,28.88,ENE,73,0.0,0.0,29,0.00,,OVC060,0.00,VWS V14.01,2013-08-05 15:52:00,
2013-08-05 11:56:00,76.8,38.4,28.88,East,86,2.7,2.7,25,0.00,,OVC060,0.00,VWS V14.01,2013-08-05 15:56:00,
2013-08-05 12:02:00,76.8,37.3,28.88,ENE,76,2.7,2.7,24,0.00,,BKN070,0.00,VWS V14.01,2013-08-05 16:02:00,
2013-08-05 12:07:00,76.6,37.2,28.88,East,101,3.1,3.1,24,0.00,,BKN070,0.00,VWS V14.01,2013-08-05 16:07:00,
2013-08-05 12:12:00,76.8,36.2,28.88,East,91,0.0,2.7,23,0.00,,BKN070,0.00,VWS V14.01,2013-08-05 16:12:00,
2013-08-05 12:18:00,75.7,35.3,28.88,ESE,105,2.7,2.7,23,0.00,,BKN070,0.00,VWS V14.01,2013-08-05 16:18:00,
2013-08-05 12:23:00,75.9,37.6,28.88,ESE,111,4.0,4.0,25,0.00,,BKN070,0.00,VWS V14.01,2013-08-05 16:23:00,
2013-08-05 12:28:00,75.4,36.1,28.88,ENE,63,2.2,2.2,24,0.00,,BKN070,0.00,VWS V14.01,2013-08-05 16:28:00,
2013-08-05 12:33:00,75.0,36.8,28.88,SE,124,3.1,3.1,25,0.00,,BKN070,0.00,VWS V14.01,2013-08-05 16:33:00,
2013-08-05 12:39:00,75.0,36.8,28.88,SE,124,3.1,3.1,25,0.00,,BKN070,0.00,VWS V14.01,2013-08-05 16:39:00,
2013-08-05 12:44:00,75.6,36.3,28.88,SSW,199,2.7,4.0,24,0.00,,BKN070,0.00,VWS V14.01,2013-08-05 16:44:00,
2013-08-05 12:49:00,74.7,36.5,28.88,South,181,3.6,5.4,25,0.00,,BKN070,0.00,VWS V14.01,2013-08-05 16:49:00,
2013-08-05 12:54:00,74.7,36.5,28.88,SW,220,3.1,3.1,25,0.00,,BKN070,0.00,VWS V14.01,2013-08-05 16:54:00,
2013-08-05 12:59:00,74.8,36.7,28.88,SE,144,0.0,0.0,25,0.00,,BKN070,0.00,VWS V14.01,2013-08-05 16:59:00,
2013-08-05 13:05:00,76.6,38.2,28.88,NNE,26,2.2,2.2,25,0.00,,SCT065,0.00,VWS V14.01,2013-08-05 17:05:00,
2013-08-05 13:09:00,77.5,37.9,28.85,SW,214,0.0,0.0,24,0.00,,SCT065,0.00,VWS V14.01,2013-08-05 17:09:00,
2013-08-05 13:15:00,77.2,37.6,28.85,ESE,116,3.1,3.1,24,0.00,,SCT065,0.00,VWS V14.01,2013-08-05 17:15:00,
2013-08-05 13:19:00,75.9,37.6,28.85,SSE,155,3.1,3.6,25,0.00,,SCT065,0.00,VWS V14.01,2013-08-05 17:19:00,
2013-08-05 13:24:00,75.9,39.6,28.85,NE,47,2.7,3.1,27,0.00,,SCT065,0.00,VWS V14.01,2013-08-05 17:24:00,
2013-08-05 13:30:00,75.9,38.6,28.85,South,187,2.2,3.6,26,0.00,,SCT065,0.00,VWS V14.01,2013-08-05 17:30:00,
2013-08-05 13:35:00,75.6,38.3,28.85,NNE,26,2.2,2.2,26,0.00,,SCT065,0.00,VWS V14.01,2013-08-05 17:35:00,
2013-08-05 13:41:00,74.8,37.7,28.85,SSW,196,4.0,4.0,26,0.00,,SCT065,0.00,VWS V14.01,2013-08-05 17:41:00,
2013-08-05 13:46:00,74.3,37.2,28.85,SSW,204,3.1,3.1,26,0.00,,SCT065,0.00,VWS V14.01,2013-08-05 17:46:00,
2013-08-05 13:51:00,74.3,40.0,28.85,WNW,294,2.7,3.6,29,0.00,,SCT065,0.00,VWS V14.01,2013-08-05 17:51:00,
2013-08-05 13:56:00,76.1,42.5,28.85,ESE,118,3.6,3.6,30,0.00,,SCT065,0.00,VWS V14.01,2013-08-05 17:56:00,
2013-08-05 14:02:00,76.3,39.9,28.85,East,83,2.2,2.7,27,0.00,,SCT065,0.00,VWS V14.01,2013-08-05 18:02:00,
2013-08-05 14:07:00,76.3,42.6,28.85,NE,53,2.2,2.7,30,0.00,,OVC060,0.00,VWS V14.01,2013-08-05 18:07:00,
2013-08-05 14:12:00,76.3,43.5,28.85,West,262,0.0,0.0,31,0.00,,OVC060,0.00,VWS V14.01,2013-08-05 18:12:00,
2013-08-05 14:17:00,76.8,41.3,28.85,East,88,2.2,2.2,28,0.00,,OVC060,0.00,VWS V14.01,2013-08-05 18:17:00,
2013-08-05 14:22:00,76.8,43.9,28.85,SE,125,4.0,4.0,31,0.00,,OVC060,0.00,VWS V14.01,2013-08-05 18:22:00,
2013-08-05 14:27:00,76.6,43.8,28.85,SSW,203,0.0,4.0,31,0.00,,OVC060,0.00,VWS V14.01,2013-08-05 18:27:00,
2013-08-05 14:32:00,76.3,40.8,28.85,SW,226,4.0,4.0,28,0.00,,OVC060,0.00,VWS V14.01,2013-08-05 18:32:00,
2013-08-05 14:38:00,76.8,41.3,28.85,NNE,17,3.1,3.1,28,0.00,,OVC060,0.00,VWS V14.01,2013-08-05 18:38:00,
2013-08-05 14:43:00,76.3,41.7,28.85,ENE,78,0.0,2.2,29,0.00,,OVC060,0.00,VWS V14.01,2013-08-05 18:43:00,
2013-08-05 14:48:00,76.5,41.0,28.85,South,190,5.4,5.4,28,0.00,,OVC060,0.00,VWS V14.01,2013-08-05 18:48:00,
2013-08-05 14:53:00,77.0,42.3,28.85,WSW,240,3.6,3.6,29,0.00,,OVC060,0.00,VWS V14.01,2013-08-05 18:53:00,
2013-08-05 14:58:00,77.2,41.6,28.85,South,191,2.2,4.0,28,0.00,,OVC060,0.00,VWS V14.01,2013-08-05 18:58:00,
2013-08-05 15:03:00,77.0,42.3,28.85,West,279,0.0,2.7,29,0.00,,OVC060,0.00,VWS V14.01,2013-08-05 19:03:00,
2013-08-05 15:08:00,76.6,42.0,28.85,East,79,3.6,3.6,29,0.00,,OVC060,0.00,VWS V14.01,2013-08-05 19:08:00,
2013-08-05 15:13:00,76.8,42.2,28.82,SSW,211,4.0,4.0,29,0.00,,OVC060,0.00,VWS V14.01,2013-08-05 19:13:00,
2013-08-05 15:19:00,76.6,39.2,28.82,SSW,202,4.9,4.9,26,0.00,,OVC060,0.00,VWS V14.01,2013-08-05 19:19:00,
2013-08-05 15:24:00,75.9,41.4,28.82,WSW,241,3.1,3.1,29,0.00,,OVC060,0.00,VWS V14.01,2013-08-05 19:24:00,
2013-08-05 15:29:00,76.1,42.5,28.82,North,357,2.7,3.1,30,0.00,,OVC060,0.00,VWS V14.01,2013-08-05 19:29:00,
2013-08-05 15:34:00,76.1,42.5,28.82,ENE,69,0.0,0.0,30,0.00,,BKN070,0.00,VWS V14.01,2013-08-05 19:34:00,
2013-08-05 15:39:00,75.9,43.1,28.82,SSW,200,0.0,0.0,31,0.00,,BKN070,0.00,VWS V14.01,2013-08-05 19:39:00,
2013-08-05 15:44:00,75.6,42.0,28.82,SSE,154,2.2,2.2,30,0.00,,BKN070,0.00,VWS V14.01,2013-08-05 19:44:00,
2013-08-05 15:49:00,75.2,42.5,28.82,NNE,22,0.0,0.0,31,0.00,,BKN070,0.00,VWS V14.01,2013-08-05 19:49:00,
2013-08-05 15:54:00,75.7,43.0,28.82,SSW,193,2.7,3.6,31,0.00,,BKN070,0.00,VWS V14.01,2013-08-05 19:54:00,
2013-08-05 15:59:00,76.1,43.3,28.82,South,190,6.3,6.3,31,0.00,,BKN070,0.00,VWS V14.01,2013-08-05 19:59:00,
2013-08-05 16:04:00,75.9,43.1,28.82,SSW,199,3.6,3.6,31,0.00,,BKN070,0.00,VWS V14.01,2013-08-05 20:04:00,
2013-08-05 16:09:00,76.6,42.9,28.82,NNE,22,2.7,3.6,30,0.00,,BKN070,0.00,VWS V14.01,2013-08-05 20:09:00,
2013-08-05 16:14:00,76.8,43.1,28.82,SSW,199,2.2,5.4,30,0.00,,BKN070,0.00,VWS V14.01,2013-08-05 20:14:00,
2013-08-05 16:20:00,77.2,43.4,28.82,SE,124,4.0,4.0,30,0.00,,BKN070,0.00,VWS V14.01,2013-08-05 20:20:00,
2013-08-05 16:25:00,77.7,43.8,28.82,SSE,168,0.0,2.7,30,0.00,,BKN070,0.00,VWS V14.01,2013-08-05 20:25:00,
2013-08-05 16:30:00,78.1,44.2,28.82,SSE,164,2.7,4.0,30,0.00,,BKN070,0.00,VWS V14.01,2013-08-05 20:30:00,
2013-08-05 16:35:00,78.3,42.5,28.82,SW,227,3.1,5.4,28,0.00,,BKN070,0.00,VWS V14.01,2013-08-05 20:35:00,
2013-08-05 16:40:00,77.9,42.2,28.82,SSE,156,2.7,4.9,28,0.00,,BKN070,0.00,VWS V14.01,2013-08-05 20:40:00,
2013-08-05 16:45:00,77.4,41.7,28.82,SSW,212,5.4,5.4,28,0.00,,BKN070,0.00,VWS V14.01,2013-08-05 20:45:00,
2013-08-05 16:50:00,77.2,43.4,28.82,SSE,166,3.6,5.4,30,0.00,,BKN070,0.00,VWS V14.01,2013-08-05 20:50:00,
2013-08-05 16:55:00,77.4,43.5,28.82,SSW,207,4.0,4.9,30,0.00,,BKN070,0.00,VWS V14.01,2013-08-05 20:55:00,
2013-08-05 17:00:00,77.5,44.5,28.82,West,277,0.0,4.0,31,0.00,,BKN070,0.00,VWS V14.01,2013-08-05 21:00:00,
2013-08-05 17:05:00,77.4,43.5,28.82,South,176,2.2,2.2,30,0.00,,BKN070,0.00,VWS V14.01,2013-08-05 21:05:00,
2013-08-05 17:10:00,76.8,43.9,28.82,SSW,204,5.4,5.4,31,0.00,,BKN070,0.00,VWS V14.01,2013-08-05 21:10:00,
2013-08-05 17:15:00,76.5,43.6,28.82,SW,214,4.0,5.4,31,0.00,,BKN070,0.00,VWS V14.01,2013-08-05 21:15:00,
2013-08-05 17:20:00,76.5,43.6,28.82,South,181,3.6,6.3,31,0.00,,BKN070,0.00,VWS V14.01,2013-08-05 21:20:00,
2013-08-05 17:26:00,75.9,43.1,28.82,SSW,194,5.8,5.8,31,0.00,,BKN070,0.00,VWS V14.01,2013-08-05 21:26:00,
2013-08-05 17:31:00,76.1,43.3,28.82,South,188,4.0,4.9,31,0.00,,BKN070,0.00,VWS V14.01,2013-08-05 21:31:00,
2013-08-05 17:36:00,76.3,43.5,28.82,SW,225,2.2,2.7,31,0.00,,BKN070,0.00,VWS V14.01,2013-08-05 21:36:00,
2013-08-05 17:41:00,76.3,44.3,28.82,WSW,257,3.1,3.6,32,0.00,,BKN070,0.00,VWS V14.01,2013-08-05 21:41:00,
2013-08-05 17:47:00,76.1,44.1,28.82,ESE,112,2.2,3.1,32,0.00,,BKN070,0.00,VWS V14.01,2013-08-05 21:47:00,
2013-08-05 17:52:00,76.1,44.1,28.82,ESE,119,2.7,2.7,32,0.00,,BKN070,0.00,VWS V14.01,2013-08-05 21:52:00,
2013-08-05 17:57:00,76.1,44.1,28.82,South,186,0.0,0.0,32,0.00,,BKN070,0.00,VWS V14.01,2013-08-05 21:57:00,
2013-08-05 18:02:00,75.9,44.0,28.82,NE,36,0.0,0.0,32,0.00,,SCT045,0.00,VWS V14.01,2013-08-05 22:02:00,
2013-08-05 18:07:00,75.9,44.0,28.82,West,277,2.7,3.1,32,0.00,,SCT045,0.00,VWS V14.01,2013-08-05 22:07:00,
2013-08-05 18:12:00,75.7,43.8,28.82,NE,49,3.6,6.3,32,0.00,,SCT045,0.00,VWS V14.01,2013-08-05 22:12:00,
2013-08-05 18:18:00,75.6,43.7,28.82,WSW,245,2.2,4.9,32,0.00,,SCT045,0.00,VWS V14.01,2013-08-05 22:18:00,
2013-08-05 18:23:00,75.4,45.1,28.82,NNE,26,2.7,2.7,34,0.00,,SCT045,0.00,VWS V14.01,2013-08-05 22:23:00,
2013-08-05 18:28:00,75.2,44.2,28.82,East,96,0.0,0.0,33,0.00,,SCT045,0.00,VWS V14.01,2013-08-05 22:28:00,
2013-08-05 18:33:00,75.0,45.5,28.82,SSE,166,0.0,0.0,35,0.00,,SCT045,0.00,VWS V14.01,2013-08-05 22:33:00,
2013-08-05 18:39:00,74.8,44.6,28.82,South,171,0.0,0.0,34,0.00,,SCT045,0.00,VWS V14.01,2013-08-05 22:39:00,
2013-08-05 18:44:00,74.7,44.5,28.82,SW,229,0.0,2.7,34,0.00,,SCT045,0.00,VWS V14.01,2013-08-05 22:44:00,
2013-08-05 18:49:00,74.7,45.2,28.82,SW,229,0.0,0.0,35,0.00,,SCT045,0.00,VWS V14.01,2013-08-05 22:49:00,
2013-08-05 18:54:00,74.7,45.2,28.82,East,96,0.0,0.0,35,0.00,,SCT045,0.00,VWS V14.01,2013-08-05 22:54:00,
2013-08-05 18:59:00,74.5,44.3,28.82,SSW,204,4.0,5.4,34,0.00,,SCT045,0.00,VWS V14.01,2013-08-05 22:59:00,
2013-08-05 19:04:00,74.7,44.5,28.82,SSW,192,2.7,2.7,34,0.00,,BKN080,0.00,VWS V14.01,2013-08-05 23:04:00,
2013-08-05 19:09:00,74.5,44.3,28.82,SSW,196,2.7,4.0,34,0.00,,BKN080,0.00,VWS V14.01,2013-08-05 23:09:00,
2013-08-05 19:14:00,74.5,44.3,28.82,SSE,160,0.0,3.1,34,0.00,,BKN080,0.00,VWS V14.01,2013-08-05 23:14:00,
2013-08-05 19:19:00,74.5,45.1,28.82,SSE,160,0.0,0.0,35,0.00,,BKN080,0.00,VWS V14.01,2013-08-05 23:19:00,
2013-08-05 19:25:00,74.5,45.1,28.82,SSE,160,0.0,0.0,35,0.00,,BKN080,0.00,VWS V14.01,2013-08-05 23:25:00,
2013-08-05 19:30:00,74.5,45.1,28.82,SSE,160,0.0,0.0,35,0.00,,BKN080,0.00,VWS V14.01,2013-08-05 23:30:00,
2013-08-05 19:35:00,74.5,45.1,28.82,SSE,160,0.0,0.0,35,0.00,,BKN080,0.00,VWS V14.01,2013-08-05 23:35:00,
2013-08-05 19:40:00,74.5,45.1,28.82,SSE,160,0.0,0.0,35,0.00,,BKN080,0.00,VWS V14.01,2013-08-05 23:40:00,
2013-08-05 19:45:00,74.5,45.1,28.82,SSE,160,0.0,0.0,35,0.00,,BKN080,0.00,VWS V14.01,2013-08-05 23:45:00,
2013-08-05 19:51:00,74.5,45.1,28.82,SSE,160,0.0,0.0,35,0.00,,BKN080,0.00,VWS V14.01,2013-08-05 23:51:00,
2013-08-05 19:56:00,74.5,45.1,28.82,SSE,160,0.0,0.0,35,0.00,,BKN080,0.00,VWS V14.01,2013-08-05 23:56:00,
2013-08-05 20:01:00,74.5,45.1,28.82,SSE,160,0.0,0.0,35,0.00,,BKN080,0.00,VWS V14.01,2013-08-06 00:01:00,
2013-08-05 20:06:00,74.5,45.1,28.82,SSE,160,0.0,0.0,35,0.00,,BKN090,0.00,VWS V14.01,2013-08-06 00:06:00,
2013-08-05 20:11:00,73.2,46.8,28.82,ESE,119,0.0,0.0,39,0.00,,BKN090,0.00,VWS V14.01,2013-08-06 00:11:00,
2013-08-05 20:16:00,73.0,47.3,28.82,ESE,119,0.0,0.0,40,0.00,,BKN090,0.00,VWS V14.01,2013-08-06 00:16:00,
2013-08-05 20:22:00,73.0,48.6,28.82,SSW,195,0.0,0.0,42,0.00,,BKN090,0.00,VWS V14.01,2013-08-06 00:22:00,
2013-08-05 20:27:00,72.9,47.8,28.82,SSW,195,0.0,0.0,41,0.00,,BKN090,0.00,VWS V14.01,2013-08-06 00:27:00,
2013-08-05 20:32:00,72.7,47.0,28.82,SSW,195,0.0,0.0,40,0.00,,BKN090,0.00,VWS V14.01,2013-08-06 00:32:00,
2013-08-05 20:37:00,72.7,47.0,28.82,SSE,166,0.0,0.0,40,0.00,,BKN090,0.00,VWS V14.01,2013-08-06 00:37:00,
2013-08-05 20:42:00,72.5,47.5,28.82,SSE,166,0.0,0.0,41,0.00,,BKN090,0.00,VWS V14.01,2013-08-06 00:42:00,
2013-08-05 20:47:00,72.5,47.5,28.82,SW,224,2.7,2.7,41,0.00,,BKN090,0.00,VWS V14.01,2013-08-06 00:47:00,
2013-08-05 20:52:00,72.3,47.3,28.82,SW,224,0.0,0.0,41,0.00,,BKN090,0.00,VWS V14.01,2013-08-06 00:52:00,
2013-08-05 20:57:00,72.3,47.3,28.82,SSE,148,0.0,0.0,41,0.00,,BKN090,0.00,VWS V14.01,2013-08-06 00:57:00,
2013-08-05 21:02:00,72.3,47.3,28.82,NNE,12,0.0,0.0,41,0.00,,OVC033,0.00,VWS V14.01,2013-08-06 01:02:00,
2013-08-05 21:08:00,72.1,47.2,28.82,SW,216,2.2,2.2,41,0.00,,OVC033,0.00,VWS V14.01,2013-08-06 01:08:00,
2013-08-05 21:13:00,72.1,47.8,28.82,SW,216,0.0,0.0,42,0.00,,OVC033,0.00,VWS V14.01,2013-08-06 01:13:00,
2013-08-05 21:18:00,72.1,47.2,28.82,SW,216,0.0,0.0,41,0.00,,OVC033,0.00,VWS V14.01,2013-08-06 01:18:00,
2013-08-05 21:23:00,72.1,47.8,28.82,SW,216,0.0,0.0,42,0.00,,OVC033,0.00,VWS V14.01,2013-08-06 01:23:00,
2013-08-05 21:28:00,72.0,47.0,28.82,SW,216,0.0,0.0,41,0.00,,OVC033,0.00,VWS V14.01,2013-08-06 01:28:00,
2013-08-05 21:34:00,72.0,47.6,28.82,SW,216,0.0,0.0,42,0.00,,OVC033,0.00,VWS V14.01,2013-08-06 01:34:00,
2013-08-05 21:39:00,72.0,47.6,28.82,SW,216,0.0,0.0,42,0.00,,OVC033,0.00,VWS V14.01,2013-08-06 01:39:00,
2013-08-05 21:44:00,71.8,48.1,28.82,SW,216,0.0,0.0,43,0.00,,OVC033,0.00,VWS V14.01,2013-08-06 01:44:00,
2013-08-05 21:49:00,71.8,48.1,28.82,SSW,198,2.7,2.7,43,0.00,,OVC033,0.00,VWS V14.01,2013-08-06 01:49:00,
2013-08-05 21:55:00,71.8,48.1,28.82,South,178,2.2,2.2,43,0.00,,OVC033,0.00,VWS V14.01,2013-08-06 01:55:00,
2013-08-05 22:00:00,71.8,48.1,28.82,SW,217,3.1,3.1,43,0.00,,OVC033,0.00,VWS V14.01,2013-08-06 02:00:00,
2013-08-05 22:05:00,71.8,48.1,28.82,South,185,2.7,2.7,43,0.00,,OVC035,0.00,VWS V14.01,2013-08-06 02:05:00,
2013-08-05 22:10:00,71.6,47.9,28.82,South,185,0.0,0.0,43,0.00,,OVC035,0.00,VWS V14.01,2013-08-06 02:10:00,
2013-08-05 22:15:00,71.6,48.6,28.82,South,185,0.0,0.0,44,0.00,,OVC035,0.00,VWS V14.01,2013-08-06 02:15:00,
2013-08-05 22:20:00,71.4,48.4,28.82,SW,222,0.0,2.7,44,0.00,,OVC035,0.00,VWS V14.01,2013-08-06 02:20:00,
2013-08-05 22:25:00,71.2,48.8,28.82,SW,222,0.0,0.0,45,0.00,,OVC035,0.00,VWS V14.01,2013-08-06 02:25:00,
2013-08-05 22:31:00,71.1,48.7,28.82,SW,222,0.0,0.0,45,0.00,,OVC035,0.00,VWS V14.01,2013-08-06 02:31:00,
2013-08-05 22:36:00,70.7,48.3,28.82,SW,222,0.0,0.0,45,0.00,,OVC035,0.00,VWS V14.01,2013-08-06 02:36:00,
2013-08-05 22:42:00,70.5,48.8,28.82,SW,222,0.0,0.0,46,0.00,,OVC035,0.00,VWS V14.01,2013-08-06 02:42:00,
2013-08-05 22:47:00,70.3,49.2,28.82,SW,222,0.0,0.0,47,0.00,,OVC035,0.00,VWS V14.01,2013-08-06 02:47:00,
2013-08-05 22:52:00,70.3,49.2,28.82,SW,222,0.0,0.0,47,0.00,,OVC035,0.00,VWS V14.01,2013-08-06 02:52:00,
2013-08-05 22:57:00,70.2,49.0,28.82,SW,222,0.0,0.0,47,0.00,,OVC035,0.00,VWS V14.01,2013-08-06 02:57:00,